COSMOS 2251 DEB, 38220

Orbit data source: Space-Track

COSMOS 2251 DEB, 38220 is space debris in LEO originally from a launch on Wed, 16 Jun 1993 UTC launched from the Plesetsk Missile And Space Complex (PKMTR). The debris from Iridium 33, an American commercial communications satellite, has been tracked extensively since its accidental collision with the defunct Russian satellite Cosmos 2251 in 2009. This event, occurring at high speed in low Earth orbit (LEO), generated thousands of pieces of space debris, significantly increasing the risk of further collisions. The Iridium 33 debris cloud has impacted space traffic management and orbital debris mitigation strategies, making it a subject of ongoing study in space situational awareness.

Loading next visibility...
Identifier
38220, 1993-036BTL
Orbit
LEO
Country
Flag of CISCIS
Related business
Manufacturer
Unknown
Mission
Spacecraft
Bus & Motor
Unknown
Mass
Unknown
Launch date (UTC)
1993-06-16 (33 years ago)
Launch vehicle
Unknown
Launch site
Plesetsk Missile And Space Complex (PKMTR)
Object type
Payload
Rocket body
Debris
Shape & HBR
Unknown shape, 0.1 m
Radar Cross Section
Small (<0.1 m²)

Expand to show TLE details & history
Last TLE update: 16 hours ago

TLE from 16 hours ago
0 COSMOS 2251 DEB
1 38220U 93036BTL 26034.52300344  .00048940  00000-0  41665-2 0  9991
2 38220  74.0144 321.7135 0004483 285.5059  74.5631 14.97535265721599
Epoch: 2026-02-03T12:33Z
TLE epoch observation values (Epoch: 2026-02-03T12:33:07.497Z)
Latitude
-0.00003°
Longitude
-0.27046°
Altitude
576.37 km
Speed
7.573 km/s
True Right ascension
21h 26m 51s
True Declination
0° 00' 00"
Sunlit
Object was in daylight at epoch
Visualization orbit readout
Latitude
Unknown
Longitude
Unknown
Altitude
Unknown
Speed
Unknown
Apparent Right ascension
Unknown
Apparent Declination
Unknown
Sunlit
N/A
Visualization observer readout
Local Sidereal Time
06:11:25
Azimuth
Unknown
Elevation
Unknown
Doppler factor
Unknown
Orbital elements
Apogee altitude
575.189 km
Perigee altitude
568.957 km
Semi-major axis
6,950.21 km
Eccentricity
0.00045
Inclination
74.0144°
RAAN
321.7135°
Arg. of periapsis
285.5059°
True anomaly
74.61263°
Mean anomaly
74.5631°
Eccentric anomaly
74.58786°
Mean motion
3.74581 °/min
Orbital period
96.11 mins
BSTAR
0.0041665
Loading maneuver chart data...
Computing Atmospheric mass density...
Loading historical data...
Loading historical data...
Loading historical data...
Loading historical data...
Loading historical data...
Loading historical data...
Loading historical data...

Documentation

Showing up to 5 results
|